#timestamp,LO_Frequency,Hit 
1500577215.5,286047007.5,N
1500577235.3,286047007.0,N
1500577255.2,286047004.6,N
1500577275.0,286047006.6,N
1500577275.9,286047006.6,N
1500577295.7,286047006.5,N
1500577315.6,286047006.1,N
1500577335.4,286047006.2,N
1500577355.3,286047007.4,N
1500577375.1,286047007.3,N
1500577376.0,286047007.3,N
1500577395.8,286047006.3,N
1500577415.7,286047006.6,N
1500577435.5,286047006.7,N
1500577455.3,286047007.4,N
1500577475.2,286047008.6,N
1500577495.0,286047010.7,N
1500577495.9,286047010.7,N
1500577515.8,286047007.9,N
1500577535.6,286047007.9,N
1500577555.4,286047006.5,N
1500577575.3,286047006.6,N
1500577595.1,286047008.8,N
1500577615.9,286047006.8,N
1500577635.7,286047006.2,N
1500577655.5,286047007.0,N
1500577675.4,286047006.4,N
1500577695.2,286047006.3,N
1500577715.0,286047006.2,N
1500577715.9,286047006.2,N
1500577735.8,286047008.3,N
1500577755.6,286047010.7,N
1500577775.5,286047007.8,N
1500577795.3,286047008.1,N
1500577815.1,286047008.4,N
1500577835.9,286047008.5,N
1500577855.7,286047008.1,N
1500577875.5,286047009.0,N
1500577895.4,286047008.7,N
1500577915.2,286047010.8,N
1500577935.1,286047010.7,N
1500577936.0,286047010.7,N
1500577955.8,286047010.7,N
1500577975.6,286047008.0,N
1500577995.5,286047008.0,N
1500578015.3,286047008.5,N
1500578035.1,286047008.5,N
1500578055.9,286047008.0,N
1500578075.7,286047007.9,N
1500578095.6,286047010.6,N
1500578115.4,286047010.5,N
1500578135.2,286047009.9,N
1500578155.1,286047009.8,N
1500578156.0,286047009.8,N
1500578175.8,286047009.5,N
1500578195.7,286047009.9,N
1500578215.5,286047009.8,N
1500578235.3,286047011.9,N
1500578255.2,286047012.3,N
1500578275.0,286047012.4,N
1500578275.9,286047012.4,N
1500578295.7,286047012.0,N
1500578315.6,286047011.3,N
1500578335.4,286047011.8,N
1500578355.3,286047011.4,N
1500578375.1,286047011.3,N
1500578395.8,286047013.5,N
1500578415.7,286047013.6,N
1500578435.5,286047013.7,N
1500578455.4,286047012.7,N
1500578475.2,286047013.2,N
1500578495.0,286047013.6,N
1500578495.9,286047013.6,N
1500578515.8,286047013.6,N
1500578535.6,286047013.6,N
1500578555.4,286047013.2,N
1500578575.3,286047012.6,N
1500578595.1,286047013.4,N
1500578615.9,286047012.8,N
1500578635.7,286047013.9,N
1500578655.5,286047012.8,N
1500578675.4,286047012.6,N
1500578695.2,286047013.1,N
1500578715.0,286047013.4,N
1500578715.9,286047013.4,N
1500578735.8,286047013.8,N
1500578755.6,286047013.7,N
1500578775.5,286047013.4,N
1500578795.3,286047012.8,N
1500578815.1,286047012.7,N
1500578835.9,286047013.6,N
1500578855.7,286047011.2,N
1500578875.6,286047011.5,N
1500578895.4,286047011.8,N
1500578915.2,286047011.0,N
1500578935.1,286047011.0,N
1500578936.0,286047011.0,N
1500578955.8,286047011.5,N
1500578975.7,286047012.2,N
1500578995.5,286047011.9,N
1500579015.3,286047011.7,N
1500579035.2,286047009.3,N
1500579055.0,286047009.8,N
1500579055.9,286047009.8,N
1500579075.8,286047012.4,N
1500579095.6,286047012.0,N
1500579115.4,286047011.9,N
1500579135.3,286047011.5,N
1500579155.1,286047011.8,N
1500579175.9,286047012.0,N
1500579195.7,286047010.0,N
1500579215.5,286047009.5,N
1500579235.4,286047009.4,N
1500579255.2,286047012.3,N
1500579275.0,286047012.2,N
1500579275.9,286047012.2,N
1500579295.8,286047012.1,N
1500579315.6,286047012.4,N
1500579335.5,286047009.8,N
1500579355.3,286047011.6,N
1500579375.1,286047011.8,N
1500579395.9,286047009.4,N
1500579415.7,286047012.0,N
1500579435.5,286047009.6,N
1500579455.4,286047009.5,N
1500579475.2,286047012.3,N
1500579495.1,286047012.4,N
1500579496.0,286047012.4,N
1500579515.8,286047009.9,N
1500579535.6,286047012.2,N
1500579555.5,286047011.9,N
1500579575.3,286047011.6,N
1500579595.2,286047011.9,N
1500579615.9,286047012.0,N
1500579635.7,286047012.2,N
1500579655.6,286047009.4,N
1500579675.4,286047009.8,N
1500579695.3,286047009.5,N
1500579715.1,286047009.8,N
1500579716.0,286047009.8,N
1500579735.9,286047009.8,N
1500579755.7,286047011.5,N
1500579775.5,286047011.6,N
1500579795.4,286047011.8,N
1500579815.2,286047011.5,N
1500579835.0,286047011.2,N
1500579835.9,286047011.2,N
1500579855.8,286047011.9,N
1500579875.6,286047011.3,N
1500579895.5,286047011.9,N
1500579915.3,286047009.5,N
1500579935.1,286047010.2,N
1500579955.9,286047010.8,N
1500579975.7,286047010.1,N
1500579995.6,286047010.3,N
1500580015.4,286047008.1,N
1500580035.2,286047008.2,N
1500580055.1,286047008.9,N
1500580056.0,286047008.9,N
1500580075.8,286047007.7,N
1500580095.7,286047009.1,N
1500580115.5,286047009.0,N
1500580135.3,286047008.8,N
1500580155.2,286047007.4,N
1500580175.0,286047007.0,N
1500580175.9,286047007.0,N
1500580195.8,286047007.6,N
1500580215.6,286047006.8,N
1500580235.4,286047006.7,N
1500580255.3,286047007.5,N
1500580275.1,286047005.2,N
1500580295.9,286047007.2,N
1500580315.7,286047005.2,N
1500580335.5,286047003.3,N
1500580355.4,286047003.4,N
1500580375.2,286047003.4,N
1500580395.1,286047004.8,N
1500580396.0,286047004.8,N
1500580415.8,286047004.7,N
1500580435.6,286047003.5,N
1500580455.5,286047005.9,N
1500580475.3,286047003.4,N
1500580495.1,286047003.0,N
1500580515.9,286047003.2,N
1500580535.7,286047003.1,N
1500580555.6,286047005.9,N
1500580575.4,286047003.0,N
1500580595.2,286047003.6,N
1500580615.1,286047003.7,N
1500580616.0,286047003.7,N
1500580635.8,286047003.7,N
1500580655.6,286047001.7,N
1500580675.5,286047002.1,N
1500580695.3,286047004.4,N
1500580715.2,286047001.8,N
1500580735.9,286047004.3,N
1500580755.7,286047001.9,N
1500580775.6,286047002.5,N
1500580795.4,286047002.2,N
